Regional Weather Roundup
Issued by NWS Kansas City/Pleasant Hill, MO

Home | Current Version | Previous Version | Graphics & Text | Print | Product List | Glossary Off
Versions: 1 2 3 4 5 6 7 8 9 10 11 12 13 14 15 16 17 18 19 20 21 22 23 24 25 26 27 28 29 30 31 32 33 34 35 36 37 38 39 40 41 42 43 44 45 46 47 48 49 50

000
ASUS43 KEAX 291110
RWREAX

WEATHER ROUNDUP FOR EASTERN KANSAS AND NORTHWEST MISSOURI
NATIONAL WEATHER SERVICE KANSAS CITY/PLEASANT HILL MO
500 AM CST THU JAN 29 2015

KSZ040-057-103>105-MOZ028-029-037-043-291200-
...KANSAS CITY METROPOLITAN AREA...

CITY           SKY/WX    TMP DP  RH WIND       PRES   REMARKS
K.C. INTL      CLOUDY    39  31  72 NW16G37   30.11R WCI  30
K.C. DOWNTOWN  LGT RAIN  42  32  67 NW17G31   30.10R WCI  34
LEES SUMMIT    CLOUDY    42  34  73 NW22G32   30.09R WCI  33
OLATHE - IXD   CLOUDY    39  32  76 NW29G37   30.11R WCI  27
OLATHE - OJC   CLOUDY    40  34  79 N18G30    30.09R WCI  31
LAWRENCE       CLOUDY    40  31  70 NW30G40   30.14R WCI  28

$$

MOZ001>008-011>017-020>025-030>033-038>040-044>046-053-054-291200-
...NORTHERN AND CENTRAL MISSOURI...

CITY           SKY/WX    TMP DP  RH WIND       PRES   REMARKS
ST. JOSEPH     CLOUDY    39  29  67 N23G35    30.13R WCI  28
MOSBY            N/A     39  32  75 NW24G37   30.09R WCI  28
WARRENSBURG    CLOUDY    43  36  75 NW18G25   30.05R WCI  34
WHITEMAN AFB   CLOUDY    44  35  71 N16G24    30.04R
CLINTON        CLOUDY    46  37  71 NW16G22   30.05R
SEDALIA        CLOUDY    44  35  70 NW22G36   30.04R
WARSAW         NOT AVBL
MARSHALL       CLOUDY    46  37  71 NW22G33   30.01R
CHILLICOTHE      N/A     41  34  76 NW10G23   30.05R WCI  35
MOBERLY        CLOUDY    39  32  75 NW21G30   29.98R WCI  29
KIRKSVILLE     CLOUDY    37  32  82 NW22G28   29.99R WCI  26

$$

MOZ041-047>049-056>058-063>065-088>090-097-291200-
...EASTERN AND SOUTHERN MISSOURI...

CITY           SKY/WX    TMP DP  RH WIND       PRES   REMARKS
ST. LOUIS INTL FAIR      51  38  60 W20G26    29.82R
SPIRIT OF STL  CLEAR     51  38  60 W13G22    29.85R
COLUMBIA       CLOUDY    42  34  73 NW24G40   29.96R WCI  32
JEFFERSON CITY CLOUDY    46  35  65 NW21G32   29.97R
MEXICO         CLOUDY    41  36  81 NW21G40   29.93R WCI  32
HANNIBAL       CLOUDY    39  32  75 NW24G33   29.92R WCI  28
ROLLA          CLEAR     46  36  68 W22G32    29.91R
LEBANON        CLEAR     48  37  66 NW9G21    29.98R
OSAGE BEACH    MOCLDY    46  36  66 W13G22    29.99R
SPRINGFIELD    CLEAR     49  36  61 NW20G26   30.00R
BRANSON        CLEAR     54  36  50 NW14G21   30.01R
NEVADA         MOCLDY    46  37  71 NW14G21   30.08R
JOPLIN         CLEAR     49  35  58 NW14      30.07R
WEST PLAINS    CLEAR     49  40  71 W10       29.93R

$$

IAZ060-094-KSZ022-034>040-054-083-096-NEZ052-066-093-291200-
...KANSAS...SOUTHEAST NEBRASKA AND IOWA...

CITY           SKY/WX    TMP DP  RH WIND       PRES   REMARKS
TOPEKA         CLOUDY    40  32  73 NW20G26   30.18R WCI  30
MANHATTAN      CLOUDY    40  30  67 N13G23    30.23R WCI  32
EMPORIA        CLOUDY    41  32  70 N26G36    30.17R WCI  30
CHANUTE        CLEAR     47  36  65 N20G32    30.11R
WICHITA        PTCLDY    47  34  60 N22G28    30.17R
OMAHA          CLOUDY    36  29  75 NW25G35   30.15R WCI  24
LINCOLN        CLOUDY    39  29  67 NW21G33   30.21R WCI  29
FALLS CITY     CLOUDY    37  28  70 NW21G35   30.16R WCI  26
LAMONI         CLOUDY    37  30  75 NW20G28   30.04R WCI  27
DES MOINES     DRIZZLE   36  32  85 N21G30    30.03R WCI  25

$$



USA.gov is the U.S. government's official web portal to all federal, state and local government web resources and services.